Spokane, WA
on Friday, December 21, 2012

Friday
Previous Day Next Day
Daily Summary
 ActualAverageRecord
Temperature
Mean Temperature °F 26°F  
Max Temperature 38°F 31°F 59°F (1933)
Min Temperature 32°F 22°F -10°F (1983)
Degree Days
Heating Degree Days 30 39  
Month to date heating degree days 662 784  
Since 1 July heating degree days 2047 2451  
Cooling Degree Days 0 0  
Month to date cooling degree days 0 0  
Year to date cooling degree days 535 450  
Moisture
Dew Point 33°F   
Average Humidity 91    
Maximum Humidity 100    
Minimum Humidity 82    
Precipitation
Precipitation 0.08 in 0.07 in 0.84 in (1951)
Month to date precipitation 1.99 1.62  
Year to date precipitation 20.73 15.88  
Snow
Snow 0.70 in 0.50 in 11.10 in (1951)
Month to date snowfall 12.6 9.3  
Since 1 July snowfall 18.5 16.8  
Snow Depth 1.00 in   
Wind
Wind Speed 5 mph   
Max Wind Speed 12 mph   
Max Gust Speed 16 mph   
Visibility 6 miles   
Events Fog , Rain , Snow   

Key: T is trace of precipitation, MM is missing value
Source: NWS Daily Summary
Time(PST)TemperatureDew PointHumidity Pressure Visibility Wind DirectionWind SpeedGust SpeedPrecipitationEvents Conditions
12:31 AM 33.8°F 32.0°F 93% 29.85 in 3.0 miles SE 4.6 mph - 0.01 in Snow Light Snow
12:53 AM 33.1°F 32.0°F 96% 29.89 in 2.5 miles SSE 5.8 mph - 0.01 in Snow Light Snow
1:53 AM 33.1°F 32.0°F 96% 29.89 in 2.5 miles SSE 4.6 mph - 0.02 in Snow Light Snow
2:53 AM 33.1°F 32.0°F 96% 29.90 in 2.0 miles SSE 4.6 mph - 0.02 in Snow Light Snow
3:53 AM 32.0°F 32.0°F 100% 29.86 in 2.0 miles SE 4.6 mph - N/A Snow Light Snow
4:53 AM 33.1°F 32.0°F 96% 29.90 in 2.0 miles SE 4.6 mph - 0.00 in Snow Light Snow
5:44 AM 33.8°F 32.0°F 93% 29.85 in 7.0 miles ESE 4.6 mph - 0.00 in Snow Light Snow
5:53 AM 33.1°F 33.1°F 100% 29.91 in 7.0 miles Calm Calm - 0.00 in   Overcast
6:53 AM 33.1°F 32.0°F 96% 29.90 in 7.0 miles NNE 4.6 mph - N/A   Overcast
7:11 AM 33.8°F 32.0°F 93% 29.85 in 1.0 miles NE 4.6 mph - N/A   Overcast
7:22 AM 33.8°F 32.0°F 93% 29.85 in 0.5 miles NE 4.6 mph - N/A   Overcast
7:53 AM 33.1°F 33.1°F 100% 29.91 in 0.5 miles NE 5.8 mph - 0.00 in   Light Drizzle
8:17 AM 33.8°F 33.8°F 100% 29.87 in 2.0 miles ENE 6.9 mph - 0.00 in Rain , Snow Light Rain
8:30 AM 33.8°F 33.8°F 100% 29.87 in 2.0 miles NE 5.8 mph - 0.00 in Rain , Snow Light Rain
8:53 AM 33.1°F 33.1°F 100% 29.92 in 1.0 miles ENE 5.8 mph - 0.00 in   Overcast
9:01 AM 33.8°F 33.8°F 100% 29.87 in 0.2 miles ENE 5.8 mph - N/A   Overcast
9:45 AM 33.8°F 33.8°F 100% 29.88 in 0.2 miles ENE 5.8 mph - 0.01 in Snow Light Snow
9:53 AM 34.0°F 33.1°F 96% 29.92 in 1.0 miles ENE 5.8 mph - 0.01 in Rain , Snow Light Rain
10:18 AM 33.8°F 33.8°F 100% 29.87 in 5.0 miles East 4.6 mph - 0.00 in   Overcast
10:53 AM 36.0°F 34.0°F 93% 29.91 in 10.0 miles East 4.6 mph - 0.00 in Fog Patches of Fog
11:53 AM 37.0°F 33.1°F 86% 29.89 in 10.0 miles ESE 5.8 mph - N/A   Overcast
12:53 PM 37.0°F 33.1°F 86% 29.87 in 10.0 miles ESE 3.5 mph - N/A   Overcast
1:53 PM 37.0°F 33.1°F 86% 29.87 in 10.0 miles SE 5.8 mph - N/A   Mostly Cloudy
2:53 PM 37.0°F 33.1°F 86% 29.86 in 10.0 miles Calm Calm - N/A   Overcast
3:53 PM 36.0°F 33.1°F 89% 29.86 in 10.0 miles East 5.8 mph - N/A   Overcast
4:53 PM 36.0°F 33.1°F 89% 29.85 in 10.0 miles ENE 5.8 mph - N/A   Overcast
5:53 PM 36.0°F 33.1°F 89% 29.83 in 10.0 miles ENE 9.2 mph - N/A   Overcast
6:53 PM 35.1°F 33.1°F 92% 29.83 in 10.0 miles ENE 8.1 mph - N/A   Overcast
7:53 PM 35.1°F 33.1°F 92% 29.83 in 10.0 miles ENE 5.8 mph - N/A   Overcast
8:53 PM 35.1°F 33.1°F 92% 29.82 in 10.0 miles Calm Calm - N/A   Overcast
9:53 PM 37.0°F 32.0°F 82% 29.81 in 10.0 miles SE 5.8 mph - 0.00 in   Overcast
10:53 PM 36.0°F 34.0°F 93% 29.81 in 8.0 miles SSE 4.6 mph - 0.01 in Rain Light Rain
11:53 PM 36.0°F 33.1°F 89% 29.79 in 10.0 miles ESE 5.8 mph - 0.00 in   Overcast
Moon Phase
Dec. 21 Dec. 28 Jan. 04 Jan. 11 Jan. 18
Sunrise:07:35 AM (PST) Moon Rise:12:06 PM (PST)12/21
Sunset:04:01 PM (PST) Moon Set:01:09 AM (PST)12/21

Copyright © 2014 The Weather Underground, Inc.